KB5SJ Weather Reports


time (UTC)temp
C
wind
direction
speed
KPH
gust
KPH
rain 1hr
cm
rain 24hr
cm
rain mn
cm
humidity
%
barometer
mb
20260506084515 24 180 1.6 8.0 0.00 0.00 0.00 97 1007.4
20260506083516 24 180 1.6 6.4 0.00 0.00 0.00 97 1007.4
20260506082516 24 180 1.6 6.4 0.00 0.00 0.00 96 1007.6
20260506081516 24 203 1.6 8.0 0.00 0.00 0.00 96 1007.7
20260506080515 24 180 3.2 9.7 0.00 0.00 0.00 96 1007.8
20260506073515 25 180 1.6 4.8 0.00 0.00 0.00 95 1008.2
20260506072515 25 225 1.6 8.0 0.00 0.00 0.00 95 1008.3
20260506071536 25 180 1.6 6.4 0.00 0.00 0.00 95 1008.3
20260506070517 25 203 1.6 4.8 0.00 0.00 0.00 95 1008.4
20260506062516 25 225 3.2 8.0 0.00 0.00 0.00 95 1008.3
20260506061517 25 225 1.6 4.8 0.00 0.00 0.00 95 1008.4
20260506060517 25 225 1.6 3.2 0.00 0.00 0.00 95 1008.4
20260506050517 25 248 1.6 3.2 0.00 0.00 0.00 94 1008.5
20260506044517 25 203 1.6 4.8 0.00 0.00 0.00 93 1008.4
20260506043516 25 203 1.6 4.8 0.00 0.00 0.00 93 1008.4
20260506042517 25 180 1.6 4.8 0.00 0.00 0.00 93 1008.5
20260506041537 25 203 1.6 11.3 0.00 0.00 0.00 93 1008.4
20260506040517 25 180 1.6 8.0 0.00 0.00 0.00 93 1008.2
20260506035557 25 203 3.2 8.0 0.00 0.00 0.00 93 1008.3
20260506034516 25 180 3.2 8.0 0.00 0.00 0.00 93 1008.2
20260506033517 25 203 1.6 4.8 0.00 0.00 0.00 93 1008.1
20260506032516 25 180 1.6 4.8 0.00 0.00 0.00 93 1008.2
20260506031517 25 0.0 3.2 0.00 0.00 0.00 93 1008.0
20260506030536 25 203 1.6 4.8 0.00 0.00 0.00 93 1007.9
20260506025516 25 0.0 6.4 0.00 0.00 0.00 92 1007.8
20260506024517 25 180 1.6 8.0 0.00 0.00 0.00 92 1007.6
20260506023516 25 225 1.6 9.7 0.00 0.00 0.00 92 1007.4
20260506022517 25 203 1.6 6.4 0.00 0.00 0.00 92 1007.2
20260506021517 25 203 1.6 6.4 0.00 0.00 0.00 91 1007.1
20260506020517 26 203 1.6 6.4 0.00 0.00 0.00 91 1007.0
20260506015516 26 203 1.6 6.4 0.00 0.00 0.00 91 1006.8
20260506014536 26 203 1.6 4.8 0.00 0.00 0.00 91 1006.8
20260506013516 26 203 1.6 6.4 0.00 0.00 0.00 90 1006.6
20260506012517 26 203 1.6 3.2 0.00 0.00 0.00 90 1006.5
20260506011516 26 203 1.6 8.0 0.00 0.00 0.00 90 1006.4
20260506010516 26 180 3.2 8.0 0.00 0.00 0.00 90 1006.4
20260506005517 26 203 1.6 4.8 0.00 0.00 0.00 89 1006.3
20260506004516 26 225 1.6 8.0 0.00 0.00 0.00 89 1006.1
20260506003517 26 180 3.2 11.3 0.00 0.00 0.00 89 1006.2
20260506002516 26 203 1.6 8.0 0.00 0.00 0.00 89 1006.0
20260506001517 26 225 1.6 9.7 0.00 0.00 0.00 89 1006.0
20260506000516 27 180 3.2 11.3 0.00 0.00 0.00 88 1006.0
20260505235557 27 203 3.2 9.7 0.00 0.00 0.00 88 1006.0
20260505234517 27 203 3.2 8.0 0.00 0.00 0.00 88 1005.8
20260505233517 27 203 1.6 6.4 0.00 0.00 0.00 87 1005.8
20260505232516 27 225 1.6 6.4 0.00 0.00 0.00 86 1006.0
20260505231516 27 203 3.2 8.0 0.00 0.00 0.00 86 1005.9
20260505230516 28 203 1.6 4.8 0.00 0.00 0.00 85 1005.7
20260505225516 28 225 3.2 8.0 0.00 0.00 0.00 85 1005.6
20260505224516 28 203 3.2 9.7 0.00 0.00 0.00 85 1005.8
20260505223516 28 225 3.2 8.0 0.00 0.00 0.00 85 1005.6
20260505222516 28 248 1.6 6.4 0.00 0.00 0.00 84 1005.7
20260505221516 28 203 4.8 17.7 0.00 0.00 0.00 84 1005.7
20260505220516 28 203 3.2 8.0 0.00 0.00 0.00 84 1005.7
20260505215536 28 248 1.6 6.4 0.00 0.00 0.00 84 1006.1
20260505214536 28 248 3.2 9.7 0.00 0.00 0.00 84 1006.2
20260505213516 28 225 1.6 4.8 0.00 0.00 0.00 84 1006.2
20260505212516 28 248 1.6 6.4 0.00 0.00 0.00 85 1006.3
20260505211516 28 225 3.2 8.0 0.00 0.00 0.00 84 1006.4
20260505210516 28 225 3.2 11.3 0.00 0.00 0.00 84 1006.6
20260505205516 28 203 3.2 12.9 0.00 0.00 0.00 84 1006.6
20260505204516 28 248 3.2 6.4 0.00 0.00 0.00 83 1006.8
20260505203537 28 225 1.6 8.0 0.00 0.00 0.00 85 1006.9
20260505202516 28 225 3.2 12.9 0.00 0.00 0.00 84 1007.0
20260505201516 27 203 3.2 8.0 0.00 0.00 0.00 86 1007.2
20260505200516 27 180 3.2 9.7 0.00 0.00 0.00 85 1007.3
20260505195537 28 203 3.2 6.4 0.00 0.00 0.00 85 1007.4
20260505194516 28 248 3.2 4.8 0.00 0.00 0.00 85 1007.7
20260505193516 28 203 3.2 6.4 0.00 0.00 0.00 84 1007.6
20260505192516 28 203 1.6 4.8 0.00 0.00 0.00 85 1007.7
20260505191536 28 225 3.2 8.0 0.00 0.00 0.00 86 1007.6
20260505190516 27 203 3.2 9.7 0.00 0.00 0.00 86 1007.9
20260505185516 27 225 1.6 9.7 0.00 0.00 0.00 86 1007.8
20260505184516 27 248 1.6 8.0 0.00 0.00 0.00 86 1008.1
20260505183516 27 203 1.6 4.8 0.00 0.00 0.00 87 1008.0
20260505182536 27 225 3.2 4.8 0.00 0.00 0.00 88 1008.1
20260505181516 26 225 3.2 9.7 0.00 0.00 0.00 89 1008.2
20260505180536 26 248 1.6 4.8 0.00 0.00 0.00 90 1008.2
20260505175556 26 248 1.6 6.4 0.00 0.00 0.00 90 1008.3
20260505174516 26 225 1.6 9.7 0.00 0.00 0.00 90 1008.4
20260505173517 26 225 4.8 14.5 0.00 0.00 0.00 89 1008.4
20260505172516 26 0.0 3.2 0.00 0.00 0.00 89 1008.5
20260505171516 26 270 1.6 3.2 0.00 0.00 0.00 89 1008.5
20260505170516 26 180 3.2 8.0 0.00 0.00 0.00 89 1008.7
20260505165516 26 0.0 3.2 0.00 0.00 0.00 90 1008.7
20260505164516 26 248 1.6 8.0 0.00 0.00 0.00 89 1008.8
20260505163536 26 225 1.6 4.8 0.00 0.00 0.00 89 1008.7
20260505162516 25 225 1.6 4.8 0.00 0.00 0.00 90 1008.8
20260505161516 25 270 1.6 6.4 0.00 0.00 0.00 90 1008.7
20260505160536 25 225 1.6 4.8 0.00 0.00 0.00 90 1008.7
20260505152516 25 248 1.6 3.2 0.00 0.00 0.00 91 1008.6
20260505151516 25 203 1.6 3.2 0.00 0.00 0.00 91 1008.6
20260505150516 25 203 3.2 8.0 0.00 0.00 0.00 91 1008.6
20260505140556 24 180 3.2 8.0 0.00 0.00 0.00 92 1008.2
20260505124516 23 203 3.2 8.0 0.00 0.00 0.00 93 1007.6
20260505123536 23 248 1.6 6.4 0.00 0.00 0.00 94 1008.3
20260505122516 22 0.0 4.8 0.00 0.00 0.00 94 1008.3
20260505121516 22 0.0 1.6 0.00 0.00 0.00 94 1007.9
20260505120516 22 0.0 1.6 0.00 0.00 0.00 94 1007.6
20260505115516 22 0.0 4.8 0.00 0.00 0.00 94 1007.5
20260505114535 22 0.0 0.0 0.00 0.00 0.00 94 1008.0
20260505113516 22 0.0 0.0 0.00 0.00 0.00 94 1007.7
20260505112516 22 225 1.6 6.4 0.00 0.00 0.00 94 1007.6
20260505111515 22 0.0 0.0 0.00 0.00 0.00 94 1007.7
20260505110536 22 0.0 0.0 0.00 0.00 0.00 94 1007.6
20260505101516 21 0.0 1.6 0.00 0.00 0.00 95 1007.7
20260505100535 21 0.0 0.0 0.00 0.00 0.00 95 1007.7
20260505095535 21 0.0 0.0 0.00 0.00 0.00 95 1007.8
20260505094535 21 0.0 0.0 0.00 0.00 0.00 95 1007.8
20260505093536 21 0.0 0.0 0.00 0.00 0.00 94 1007.9
20260505092516 21 0.0 0.0 0.00 0.00 0.00 94 1008.0
20260505091516 21 0.0 0.0 0.00 0.00 0.00 94 1007.9
20260505090556 21 0.0 0.0 0.00 0.00 0.00 94 1008.0
20260505085515 21 0.0 0.0 0.00 0.00 0.00 94 1008.0